Overview Statistics Trail Chart Weather Telemetry Raw packets
 

This is the latest recevied weather packets stored in our database for station/object W5CDN. If no packets are shown the sender has not sent any weather packets the latest 10 day(s).

<< 52 53 54 55 56 57 58 >>
Time Temp. Humidity Pressure Rain* Wind** Luminosity Snow
1788057836 31.11° C 48% 1014.3 hPa 0 mm - - -
1788057536 31.11° C 48% 1014.2 hPa 0 mm - - -
1788057236 31.67° C 48% 1014 hPa 0 mm - - -
1788056936 31.67° C 48% 1014.1 hPa 0 mm - - -
1788056636 31.67° C 47% 1014 hPa 0 mm - - -
1788056336 31.67° C 47% 1014 hPa 0 mm - - -
1788056036 31.67° C 48% 1013.9 hPa 0 mm - - -
1788055736 31.67° C 48% 1013.6 hPa 0 mm - - -
1788055436 31.67° C 48% 1014 hPa 0 mm - - -
1788055136 31.11° C 50% 1013.5 hPa 0 mm - - -
1788054836 31.11° C 53% 1013.6 hPa 0 mm - - -
1788054536 31.11° C 52% 1013.4 hPa 0 mm - - -
1788054236 31.67° C 52% 1013.3 hPa 0 mm - - -
1788053936 31.67° C 51% 1013.3 hPa 0 mm - - -
1788053636 31.67° C 51% 1013.1 hPa 0 mm - - -
1788053336 32.22° C 50% 1013.1 hPa 0 mm - - -
1788053036 32.22° C 49% 1013.1 hPa 0 mm - - -
1788052736 32.78° C 48% 1013.1 hPa 0 mm - - -
1788052436 32.78° C 47% 1013 hPa 0 mm - - -
1788052136 33.33° C 47% 1013 hPa 0 mm - - -
1788051836 33.89° C 45% 1012.7 hPa 0 mm - - -
1788051536 33.89° C 45% 1013 hPa 0 mm - - -
1788051236 33.89° C 44% 1013 hPa 0 mm - - -
1788050936 34.44° C 44% 1012.8 hPa 0 mm - - -
1788050636 34.44° C 43% 1012.8 hPa 0 mm - - -

* Rain latest hour (hover to see other rain measurements)
** Current wind speed in m/s (hover to see current wind gust speed)